SCP
1 1 1 1 1 1 1 1 1 1 0 0 0 0 0 0 0 0 1 1 0 0 0 1 1 1 1 1 1 1 1 1 1 1 1 1 1 0 1 1 1 1 0
1 1 1 1 1 1 1 1 1 1 0 0 0 0 0 0 0 0 0 0 0 0 1 1 1 1 1 2 1 1 1 1 1 1 0 0 0 0 0 1 1 1 1
1 1 1 1 1 1 1 1 1 1 1 0 0 0 0 0 0 0 0 0 0 0 1 1 1 1 2 2 1 1 1 1 1 0 0 0 0 0 0 1 1 1 1
1 1 1 1 1 1 1 1 1 1 1 0 0 0 0 0 0 0 0 0 0 0 1 1 1 1 1 1 1 1 1 1 1 0 0 0 0 0 0 0 1 1 1
1 1 1 1 1 1 1 1 1 1 1 0 0 0 0 0 0 0 0 0 0 0 1 1 1 1 1 1 1 1 1 1 1 0 0 0 0 0 0 0 1 1 1
1 1 1 1 1 1 1 1 1 1 1 0 0 0 0 0 0 0 0 0 0 0 1 1 1 1 1 1 1 1 0 0 0 0 0 0 0 0 0 0 1 1 1
1 1 1 1 1 1 1 1 1 1 1 0 0 0 0 0 0 0 0 0 0 1 1 1 1 1 1 1 1 0 0 0 0 0 0 0 0 0 0 0 1 1 1
1 1 1 1 1 1 1 1 1 1 1 0 0 0 0 0 0 0 0 0 1 1 1 1 1 1 1 1 0 0 0 0 0 0 0 0 0 0 0 0 0 1 1
2 2 1 1 1 1 1 1 1 0 0 0 0 0 0 0 0 0 0 0 1 1 1 1 1 1 1 0 0 0 0 0 0 0 0 0 0 0 0 0 0 1 1
2 2 2 1 1 1 1 1 0 0 0 0 0 0 0 0 0 0 0 0 1 1 1 1 0 0 0 0 0 0 0 0 0 0 0 0 0 1 0 0 1 1 1
2 2 2 1 1 1 1 1 1 0 0 0 0 0 0 0 0 0 0 0 0 0 0 0 0 0 0 0 0 0 0 0 0 0 0 0 1 1 1 1 1 1 1
2 2 2 2 2 1 1 1 1 1 1 1 1 0 0 0 0 0 0 0 0 0 0 0 0 0 0 0 0 0 0 0 0 0 0 0 0 1 1 1 1 1 1
2 2 2 2 2 2 2 1 1 1 1 1 1 1 1 1 1 0 0 1 0 0 0 0 0 0 0 0 0 0 0 0 0 0 0 0 0 1 1 1 1 1 1
1 2 2 2 2 2 2 2 1 1 1 1 1 1 1 1 1 1 1 1 1 1 0 0 0 0 0 0 0 0 0 0 0 0 0 0 0 1 1 1 1 1 1
1 1 2 2 2 2 2 2 2 1 1 1 1 1 1 1 1 1 1 1 1 1 0 0 0 0 0 0 0 0 0 0 0 0 0 0 0 0 1 1 1 1 1
1 1 1 1 2 2 2 2 2 2 1 1 1 1 1 1 1 1 1 1 1 1 0 0 0 0 0 0 0 1 1 0 0 0 0 0 0 0 1 1 1 1 1
0 1 1 1 1 1 2 2 2 1 1 1 1 1 1 1 1 1 1 1 1 1 0 0 0 0 0 0 1 1 1 0 0 0 0 0 0 0 0 1 1 1 1
0 0 0 1 1 1 1 1 2 1 1 1 1 1 1 1 1 1 1 1 1 1 0 0 0 0 0 1 1 1 1 1 0 0 0 0 0 0 0 1 1 1 1
0 0 0 0 0 1 1 1 1 1 1 2 2 1 1 1 1 1 2 2 1 1 0 0 0 0 1 1 1 1 1 0 0 0 0 0 0 0 0 0 0 1 1
0 0 0 0 0 0 0 1 1 1 1 1 2 1 1 1 1 1 2 2 1 1 0 0 0 0 1 1 1 0 0 0 0 0 0 0 0 0 0 0 0 0 0
0 0 0 0 0 0 0 0 1 1 1 1 1 1 1 1 1 1 1 2 1 1 0 0 0 0 1 1 0 0 0 0 0 0 0 0 0 0 0 0 0 0 0
0 0 0 0 0 0 0 0 1 1 1 1 1 1 1 1 1 2 2 2 2 1 1 0 0 0 1 0 0 0 0 0 0 0 0 0 0 0 0 0 0 0 0
0 0 0 0 0 0 0 0 0 1 0 0 1 1 1 1 1 2 2 2 2 1 1 0 0 0 0 0 0 0 0 0 0 0 0 0 0 0 0 0 0 0 0
0 0 0 0 0 0 0 0 0 1 0 0 0 0 1 1 1 2 2 2 2 1 1 0 0 0 0 0 0 0 0 0 0 0 0 0 0 0 0 0 0 0 0
0 0 0 0 0 0 0 0 0 0 0 0 0 0 0 0 1 1 2 2 1 1 1 1 0 0 0 0 0 0 0 0 0 0 0 0 0 0 0 0 0 0 0
0 0 0 0 0 0 0 0 0 0 0 0 0 0 0 0 1 1 1 1 1 1 1 1 0 0 0 0 0 0 0 0 0 0 0 0 0 0 0 0 0 0 0
Wind_Speed
6 9 8 8 9 9 9 9 9 8 8 8 8 7 7 8 8 8 8 8 8 8 9 9 9 10 10 10 9 10 10 10 10 10 11 11 11 11 11 10 9 7 12
8 10 8 9 9 10 9 9 8 8 8 8 7 7 7 7 8 8 8 8 8 8 8 9 9 9 9 9 9 10 9 9 9 9 9 9 11 11 11 10 10 7 11
9 10 8 8 9 9 9 8 8 8 8 8 7 7 7 7 7 8 8 8 8 8 8 8 8 8 8 8 8 8 8 7 7 6 5 4 6 10 10 10 10 10 11
8 9 8 8 9 9 9 8 7 7 8 7 7 7 7 7 7 7 8 7 7 7 8 8 8 8 7 7 7 7 6 5 4 4 3 4 5 9 9 10 10 10 10
7 7 9 9 9 9 8 8 7 7 7 7 7 7 7 7 6 7 7 7 7 7 7 7 7 7 7 6 6 5 5 4 4 3 4 4 4 8 9 10 10 10 10
7 7 9 9 9 9 9 9 9 8 8 7 7 7 7 7 7 7 7 6 6 6 7 7 7 7 6 6 5 4 4 4 3 3 4 4 3 8 8 9 9 9 9
7 7 9 8 9 9 9 9 9 9 8 7 7 7 7 7 7 7 7 6 6 6 7 7 7 7 6 6 5 4 4 4 3 3 4 3 4 8 8 8 8 8 9
6 7 7 8 8 8 8 8 8 8 8 7 7 7 7 7 7 7 7 6 6 6 7 7 7 6 6 5 5 4 3 4 3 4 3 3 5 7 7 7 7 7 8
6 6 5 6 7 7 7 7 8 7 7 7 6 6 6 6 6 6 6 6 6 6 6 6 6 6 5 5 4 3 4 4 2 2 3 2 4 6 6 6 6 6 7
5 5 5 5 5 5 5 7 7 7 7 7 6 6 5 5 5 6 5 6 7 7 6 6 6 5 5 4 3 3 3 3 2 2 2 3 5 6 6 6 5 5 5
4 4 4 4 4 5 5 6 6 6 7 6 5 6 4 3 3 4 5 6 6 6 6 5 5 5 4 2 2 2 2 1 2 2 2 4 5 5 5 4 5 4 4
3 3 3 3 4 4 4 4 4 4 4 3 3 3 2 2 3 4 6 6 5 5 5 4 3 2 1 0 0 0 0 1 1 1 2 4 4 4 4 4 4 3 3
3 3 3 3 3 3 3 3 2 2 2 3 3 3 2 2 2 3 2 3 3 3 2 2 2 1 0 0 0 0 0 1 1 1 2 3 2 2 2 2 2 2 2
3 3 2 3 3 3 2 2 2 2 2 2 2 3 2 2 2 2 2 2 2 1 2 1 1 1 1 0 1 1 0 0 1 1 1 2 2 1 1 1 1 1 1
4 4 3 3 3 3 2 2 2 2 2 2 2 2 2 2 2 2 2 2 1 1 1 1 1 1 1 1 1 1 1 0 1 1 1 2 1 1 1 1 1 0 0
3 3 4 3 3 3 3 2 2 2 2 3 2 3 3 2 2 2 2 2 1 1 1 1 1 1 1 1 1 0 0 0 1 1 1 1 1 1 1 2 2 1 1
2 3 3 4 3 3 3 3 2 2 2 2 2 3 3 2 3 2 2 2 2 1 1 1 1 1 1 1 1 0 0 0 0 1 1 1 1 1 1 1 2 2 2
2 3 3 3 3 3 2 3 2 2 2 2 2 2 3 2 2 2 2 2 2 2 2 2 1 1 1 1 1 1 1 0 1 1 1 1 1 1 1 1 2 2 3
1 2 3 3 3 3 2 2 2 2 3 2 2 2 2 2 3 2 2 2 2 2 2 2 2 1 1 1 1 1 1 1 1 1 1 1 1 1 1 1 1 2 3
1 2 3 3 2 2 2 1 2 2 2 2 2 2 3 2 2 2 2 2 2 2 2 2 2 1 1 1 0 0 0 1 1 1 1 0 0 1 1 1 1 1 2
1 1 3 3 3 3 2 2 2 3 2 2 2 2 3 3 3 2 2 2 2 2 2 3 2 2 1 1 1 1 1 1 1 1 1 1 0 1 1 1 1 1 1
1 1 2 3 3 3 2 2 2 2 2 2 2 2 3 3 2 2 3 2 3 2 2 2 2 2 2 2 2 1 0 1 1 1 1 1 1 0 1 1 1 0 0
1 2 2 2 3 2 2 2 1 1 1 2 2 2 3 3 3 2 3 3 3 3 3 3 3 3 2 2 2 2 2 2 1 1 1 1 1 1 1 1 1 1 0
0 1 1 2 2 2 2 3 4 3 3 3 2 2 3 3 3 3 3 3 3 3 3 3 3 2 3 3 1 1 1 2 2 1 2 1 1 1 1 1 1 1 1
1 1 1 1 1 2 2 2 3 2 1 1 2 3 2 2 3 3 3 3 3 3 3 3 3 3 3 3 2 1 1 1 1 2 2 2 2 2 2 2 2 1 1
2 2 1 1 1 1 2 2 2 2 1 2 2 3 2 2 2 3 2 3 3 2 3 3 4 4 3 3 2 2 2 2 2 2 3 2 2 2 2 2 1 1 1
Wind_Direction
121 126 139 138 137 132 126 124 119 117 115 109 106 105 100 97 99 98 97 94 91 89 89 87 84 80 78 76 75 73 73 73 70 71 70 70 71 70 68 68 66 66 69
120 128 139 136 137 134 129 124 121 120 116 113 108 106 104 102 102 101 100 96 93 92 92 89 85 81 79 77 77 77 75 74 75 71 69 68 70 69 68 68 70 74 72
118 129 139 132 135 134 131 127 126 125 121 117 113 109 106 104 103 101 100 98 97 95 94 93 89 84 81 79 81 80 79 75 70 63 65 69 75 72 73 70 70 74 74
121 132 136 130 134 134 132 131 130 127 125 123 117 113 110 108 105 104 101 98 98 98 96 96 95 90 85 82 81 82 77 63 48 45 58 70 72 77 77 74 73 76 77
119 127 127 131 132 134 134 135 132 127 124 122 116 112 110 108 105 104 101 98 99 99 95 95 98 95 90 85 80 77 68 47 30 45 61 62 68 83 81 76 74 76 76
122 122 125 131 134 133 130 128 126 123 121 118 116 113 111 107 103 101 97 96 99 100 97 92 92 97 94 88 78 69 55 33 29 60 64 60 65 86 86 82 77 76 76
115 118 129 129 131 130 128 126 123 120 116 114 114 114 112 109 105 100 95 94 95 94 91 89 87 88 90 86 77 61 40 25 44 59 64 63 72 88 88 86 82 79 79
110 117 130 128 127 127 127 125 124 121 116 112 112 112 110 109 107 105 102 97 96 99 96 90 87 85 86 84 73 48 21 21 51 64 60 61 82 94 92 88 85 80 77
107 112 124 136 135 127 125 123 121 121 118 113 109 105 103 105 106 103 103 101 102 100 97 96 93 87 82 80 69 39 9 6 27 55 67 64 86 95 93 92 88 81 77
109 115 126 134 137 137 129 122 121 119 116 111 106 103 102 104 105 100 94 96 98 100 97 95 92 88 83 76 58 28 1 2 59 54 50 67 85 95 94 89 85 80 77
122 122 132 139 136 137 140 136 131 127 125 123 122 126 129 129 124 109 95 97 97 97 98 96 94 90 81 74 47 11 2 29 68 73 58 79 90 94 94 90 83 77 76
143 142 137 141 139 137 141 144 147 147 142 146 138 147 154 125 110 107 106 107 106 104 104 100 100 102 82 96 197 339 3 51 53 75 79 89 88 94 97 92 87 83 78
163 144 138 140 136 135 132 147 142 140 145 150 140 144 129 113 117 120 124 124 125 130 121 123 147 196 129 72 16 48 69 60 76 69 84 92 97 98 92 89 97 95 82
160 157 152 140 138 135 138 149 139 137 146 145 141 141 130 129 133 135 134 136 142 142 138 151 173 151 104 73 56 8 23 92 95 93 94 93 100 102 86 88 113 102 95
168 168 166 159 148 145 143 155 151 150 153 150 142 152 143 138 148 140 134 132 139 131 143 153 162 151 133 101 76 37 18 58 98 94 95 104 110 144 196 237 223 216 262
176 175 169 171 161 155 159 165 159 158 157 151 151 156 156 148 147 142 140 142 140 141 149 148 160 150 132 121 109 179 203 66 129 148 149 126 121 144 204 226 233 228 247
177 168 167 172 169 168 169 170 159 158 153 151 156 156 155 151 152 150 150 153 155 145 131 132 141 125 137 132 151 216 175 187 167 180 170 152 145 157 189 229 245 245 250
176 168 169 170 172 174 174 174 162 158 146 142 146 146 152 154 155 156 158 163 162 151 148 153 155 160 166 169 198 215 197 196 231 215 189 154 151 145 173 207 252 264 258
189 166 157 162 167 173 177 180 160 149 140 137 135 139 155 158 157 158 159 157 157 153 159 172 160 167 172 185 215 215 204 206 213 219 225 202 164 138 136 155 229 271 267
180 167 152 159 159 155 157 169 155 143 144 139 144 149 154 154 162 160 156 158 161 161 169 168 162 157 162 168 184 285 246 222 204 196 202 196 147 150 161 153 173 259 267
152 172 166 161 161 151 158 175 173 172 164 155 154 155 160 158 161 156 156 165 169 174 179 173 160 157 157 122 84 352 312 242 200 188 170 146 164 177 186 187 188 206 248
164 199 179 166 168 171 178 186 182 167 173 168 158 163 170 163 163 172 162 172 177 175 174 175 161 160 167 154 141 130 316 314 295 233 165 168 199 175 195 216 185 223 219
194 198 193 175 169 171 157 135 128 132 133 161 180 184 188 177 174 173 173 171 177 181 186 186 180 174 174 190 171 158 163 216 282 280 232 201 208 203 219 232 215 222 220
279 189 174 156 157 153 151 156 165 182 187 193 186 184 189 180 172 176 179 181 184 188 193 190 184 186 170 183 204 226 188 161 156 266 291 265 233 229 239 241 232 231 221
24 90 120 117 133 135 145 164 179 197 198 173 162 164 178 178 176 181 180 180 184 190 193 189 187 188 182 184 183 187 212 239 172 181 240 269 283 260 245 232 226 228 223
36 50 89 105 110 124 142 165 184 195 183 169 171 173 180 180 184 186 182 181 186 191 195 195 194 187 191 195 192 184 181 186 191 194 218 230 246 255 250 234 219 217 209